Вернуться в каталог

ARIANE 5 DEB

SYLDA

АктивенGTO
NORAD 44037·DEBRIS·🇫🇷 France

Запущен Feb 5, 2019 с Guiana Space Centre

Loading…

TLE

УстаревшееSource: Space-Track

Эпоха: Sep 14, 2026, 01:27 UTC

1 44037U 19007D   26257.06081687  .00004848  00000-0  14782-2 0  9991
2 44037   2.5206 153.0932 7133224  46.3468 354.0177  2.46532341 65223

Отслеживайте ARIANE 5 DEB в реальном времени с AllMySat

Download on the App Store